Location: Angwan Shehu
(11.2514°N, 7.4613°E)
Time: 21:52:29
(UTC+00:00)

Vanguard 3 - Pass Details

Date: 30 July 2021
Orbit: 510 x 3260 km, 33.3° (Epoch: 18 September)

Event Time Altitude Azimuth Distance (km) Brightness Sun altitude
Rises 20:32:05 0° 297° (WNW) 6,701 12.8 -35.7°
Reaches altitude 10° 20:37:04 10° 306° (NW) 5,931 12.3 -36.8°
Maximum altitude 20:54:21 36° 7° (N) 4,336 10.8 -40.3°
Enters shadow 21:06:54 18° 61° (ENE) 5,045 10.9 -42.7°
